Temp
-10 -10 -10 -10 -10 -10 -10 -11 -11 -11 -11 -11 -11 -11 -11 -11 -11 -11 -12 -12 -11 -11 -11 -11 -11 -11 -11 -11 -11 -11 -10 -10 -10 -10 -11 -11 -10 -11 -11 -10 -10 -11 -10 -11 -11
-10 -10 -10 -11 -11 -11 -11 -11 -11 -11 -11 -11 -11 -11 -12 -12 -12 -12 -12 -12 -12 -12 -12 -12 -12 -12 -11 -11 -11 -11 -10 -10 -11 -11 -11 -11 -11 -11 -11 -10 -10 -11 -11 -10 -11
-11 -11 -11 -11 -11 -12 -12 -12 -12 -12 -12 -12 -12 -12 -12 -12 -13 -13 -13 -13 -12 -12 -13 -13 -13 -12 -11 -11 -11 -11 -10 -12 -11 -11 -11 -11 -11 -11 -11 -10 -10 -11 -11 -11 -11
-11 -11 -11 -12 -12 -12 -12 -12 -12 -12 -12 -12 -12 -13 -13 -13 -13 -13 -13 -13 -13 -13 -13 -13 -13 -12 -12 -12 -12 -11 -12 -12 -12 -12 -11 -11 -11 -11 -11 -11 -11 -11 -11 -11 -11
-11 -11 -11 -11 -12 -12 -11 -12 -12 -12 -12 -12 -13 -13 -13 -13 -14 -13 -13 -14 -14 -13 -14 -13 -13 -13 -13 -13 -13 -12 -12 -13 -13 -12 -12 -12 -11 -11 -11 -11 -11 -11 -11 -11 -11
-11 -11 -12 -12 -12 -12 -12 -12 -12 -12 -12 -12 -13 -13 -13 -13 -14 -14 -13 -14 -14 -14 -14 -14 -13 -13 -13 -13 -13 -12 -13 -14 -14 -12 -12 -12 -12 -11 -11 -11 -11 -11 -11 -11 -11
-11 -11 -11 -11 -11 -12 -12 -12 -12 -13 -13 -13 -13 -13 -14 -14 -14 -14 -14 -14 -14 -14 -14 -14 -14 -14 -13 -14 -14 -13 -13 -14 -13 -13 -12 -12 -12 -11 -11 -11 -12 -12 -12 -12 -12
-11 -11 -12 -12 -12 -12 -12 -12 -13 -13 -13 -14 -14 -14 -15 -15 -15 -14 -14 -14 -14 -14 -14 -15 -15 -15 -14 -14 -14 -14 -14 -14 -13 -13 -12 -12 -11 -12 -12 -12 -12 -12 -12 -12 -12
-11 -12 -12 -12 -12 -13 -13 -13 -14 -15 -15 -16 -17 -18 -18 -17 -17 -16 -15 -15 -16 -15 -15 -15 -15 -15 -15 -15 -14 -14 -12 -12 -13 -13 -13 -12 -11 -13 -13 -13 -12 -12 -12 -12 -12
-12 -12 -12 -12 -13 -14 -14 -15 -17 -19 -20 -20 -20 -20 -20 -21 -20 -20 -19 -18 -17 -17 -16 -16 -16 -15 -15 -15 -13 -13 -13 -13 -13 -14 -14 -14 -12 -14 -13 -13 -13 -13 -13 -13 -12
-12 -12 -13 -13 -14 -15 -16 -19 -20 -21 -21 -22 -22 -22 -22 -22 -22 -22 -21 -21 -20 -19 -19 -18 -19 -16 -14 -14 -14 -14 -15 -14 -14 -15 -15 -14 -14 -15 -15 -15 -14 -14 -14 -13 -13
-12 -13 -13 -14 -15 -17 -19 -20 -21 -22 -23 -23 -24 -24 -24 -24 -24 -23 -22 -22 -22 -21 -21 -20 -19 -17 -16 -16 -15 -16 -15 -14 -15 -15 -15 -15 -15 -15 -16 -16 -15 -15 -14 -14 -14
-13 -13 -14 -15 -17 -20 -21 -21 -23 -23 -24 -25 -26 -26 -26 -26 -26 -26 -25 -25 -23 -23 -24 -22 -20 -19 -19 -18 -17 -16 -16 -15 -15 -15 -15 -16 -16 -16 -17 -16 -16 -15 -15 -14 -14
-13 -14 -15 -16 -19 -21 -22 -23 -24 -24 -26 -26 -27 -27 -27 -28 -28 -27 -27 -27 -27 -25 -25 -24 -23 -21 -21 -19 -19 -18 -16 -17 -16 -16 -15 -16 -15 -16 -17 -17 -16 -16 -15 -15 -14
-13 -15 -16 -18 -20 -22 -23 -24 -24 -26 -26 -27 -27 -27 -28 -29 -29 -29 -29 -29 -29 -28 -26 -25 -25 -23 -22 -21 -20 -19 -19 -18 -18 -17 -17 -17 -17 -16 -16 -18 -17 -16 -16 -15 -15
-14 -16 -17 -20 -22 -23 -24 -24 -25 -26 -27 -28 -27 -28 -28 -30 -30 -31 -31 -31 -31 -30 -29 -28 -26 -25 -25 -23 -22 -21 -21 -20 -20 -20 -21 -17 -17 -16 -16 -16 -17 -16 -16 -15 -15
-15 -16 -18 -20 -23 -23 -23 -24 -26 -27 -27 -28 -28 -28 -29 -30 -30 -31 -31 -31 -32 -31 -31 -29 -28 -26 -26 -25 -25 -22 -22 -22 -21 -22 -21 -18 -19 -17 -16 -17 -17 -17 -16 -16 -15
-15 -17 -19 -22 -24 -24 -24 -25 -26 -26 -27 -28 -28 -29 -29 -29 -30 -31 -32 -33 -33 -33 -32 -31 -30 -29 -26 -27 -26 -24 -23 -23 -22 -22 -20 -20 -21 -18 -18 -17 -17 -17 -17 -16 -16
-16 -18 -20 -23 -24 -24 -25 -25 -25 -26 -27 -27 -28 -28 -29 -30 -30 -31 -32 -33 -33 -33 -33 -32 -31 -31 -28 -27 -27 -25 -25 -24 -23 -21 -21 -22 -22 -19 -18 -18 -17 -17 -17 -17 -16
-17 -19 -21 -23 -24 -25 -25 -25 -25 -26 -27 -28 -28 -29 -29 -29 -30 -31 -32 -33 -34 -33 -34 -33 -32 -31 -30 -28 -28 -27 -25 -24 -23 -21 -22 -22 -22 -21 -18 -17 -17 -17 -17 -17 -17
-18 -20 -22 -24 -25 -25 -25 -25 -26 -26 -27 -28 -28 -29 -30 -30 -30 -31 -32 -33 -34 -34 -34 -34 -33 -32 -31 -29 -29 -28 -26 -25 -23 -22 -21 -21 -22 -22 -20 -18 -18 -17 -17 -17 -17
-18 -20 -22 -24 -25 -25 -25 -26 -26 -27 -27 -28 -28 -29 -30 -30 -31 -31 -31 -32 -34 -34 -35 -34 -33 -32 -31 -30 -29 -27 -27 -26 -24 -23 -22 -21 -22 -21 -20 -20 -18 -18 -18 -17 -17
-18 -20 -22 -24 -25 -25 -26 -26 -27 -27 -28 -28 -29 -29 -30 -31 -31 -31 -32 -32 -34 -35 -35 -34 -34 -33 -32 -31 -30 -28 -27 -26 -24 -24 -23 -23 -22 -21 -20 -21 -20 -19 -18 -18 -18
-18 -20 -22 -24 -25 -26 -26 -26 -27 -27 -28 -28 -29 -29 -30 -31 -31 -31 -32 -32 -33 -35 -35 -35 -34 -34 -32 -32 -30 -29 -28 -26 -25 -24 -24 -23 -23 -22 -21 -21 -20 -20 -19 -19 -18
-18 -20 -23 -24 -26 -26 -26 -26 -27 -28 -28 -29 -29 -30 -30 -31 -32 -32 -32 -32 -33 -34 -35 -35 -35 -34 -33 -32 -31 -30 -29 -27 -26 -25 -25 -24 -24 -23 -22 -22 -22 -21 -21 -20 -19
-19 -20 -23 -24 -26 -26 -26 -27 -27 -27 -28 -29 -29 -30 -31 -31 -32 -32 -32 -32 -33 -34 -35 -35 -35 -35 -34 -33 -32 -31 -30 -29 -28 -26 -26 -25 -24 -24 -23 -23 -22 -22 -22 -22 -21
-19 -20 -22 -24 -26 -26 -26 -26 -27 -27 -28 -29 -29 -30 -31 -32 -32 -33 -33 -33 -33 -34 -34 -35 -35 -35 -34 -34 -33 -32 -31 -30 -29 -28 -27 -26 -25 -24 -24 -24 -23 -23 -22 -21 -21
Height
5776 5773 5770 5767 5763 5760 5756 5753 5750 5747 5744 5742 5739 5737 5736 5734 5733 5732 5731 5730 5728 5729 5730 5732 5734 5736 5738 5740 5743 5744 5745 5754 5763 5767 5773 5771 5775 5781 5785 5787 5790 5796 5805 5808 5807
5773 5769 5765 5762 5758 5754 5750 5746 5743 5740 5737 5733 5730 5727 5725 5724 5723 5721 5721 5721 5719 5720 5722 5723 5724 5723 5725 5729 5731 5733 5738 5750 5757 5760 5763 5762 5768 5773 5776 5781 5785 5791 5797 5801 5803
5768 5764 5760 5756 5752 5747 5742 5738 5734 5730 5726 5722 5719 5716 5714 5711 5711 5709 5709 5709 5708 5706 5709 5711 5712 5713 5714 5717 5720 5724 5731 5742 5747 5750 5752 5753 5760 5764 5768 5773 5780 5787 5793 5798 5800
5764 5759 5754 5749 5744 5737 5732 5727 5722 5717 5712 5707 5703 5701 5699 5699 5696 5696 5696 5696 5695 5694 5696 5697 5699 5701 5705 5708 5711 5715 5723 5730 5737 5738 5741 5742 5750 5756 5760 5769 5774 5779 5785 5791 5796
5758 5753 5747 5741 5734 5727 5720 5714 5707 5701 5696 5691 5686 5682 5678 5678 5679 5675 5678 5679 5679 5681 5682 5684 5685 5687 5691 5697 5699 5703 5711 5715 5723 5727 5731 5733 5740 5747 5753 5760 5764 5770 5776 5782 5787
5752 5746 5739 5731 5722 5713 5704 5696 5688 5681 5674 5667 5663 5659 5656 5654 5649 5652 5656 5660 5662 5664 5665 5667 5671 5675 5677 5681 5685 5691 5698 5704 5710 5715 5718 5723 5729 5735 5743 5750 5755 5761 5769 5774 5780
5744 5737 5728 5719 5710 5699 5688 5678 5669 5659 5650 5642 5636 5630 5627 5625 5623 5627 5633 5638 5641 5644 5647 5650 5653 5656 5662 5667 5672 5676 5683 5690 5698 5703 5707 5711 5714 5725 5734 5741 5747 5754 5760 5766 5771
5736 5727 5716 5706 5695 5682 5668 5657 5646 5632 5621 5612 5605 5597 5592 5592 5593 5598 5605 5612 5616 5623 5628 5631 5634 5639 5644 5651 5657 5663 5667 5676 5689 5691 5694 5695 5707 5717 5721 5731 5738 5744 5749 5755 5762
5725 5714 5703 5690 5676 5661 5645 5630 5617 5602 5587 5576 5570 5565 5558 5558 5559 5567 5574 5581 5588 5595 5602 5606 5611 5619 5626 5633 5641 5649 5654 5665 5675 5681 5683 5686 5698 5706 5710 5719 5728 5734 5741 5746 5752
5714 5702 5688 5673 5659 5642 5622 5604 5585 5573 5561 5551 5545 5540 5537 5533 5532 5536 5543 5550 5559 5566 5575 5582 5583 5594 5604 5611 5624 5636 5643 5648 5656 5668 5669 5677 5685 5695 5699 5707 5718 5724 5730 5735 5742
5703 5688 5672 5656 5640 5622 5602 5579 5565 5555 5545 5535 5528 5521 5515 5512 5510 5510 5516 5521 5531 5539 5546 5553 5554 5567 5596 5607 5616 5618 5623 5633 5648 5659 5662 5671 5674 5685 5688 5694 5702 5711 5717 5725 5733
5690 5673 5656 5639 5620 5600 5580 5568 5556 5542 5531 5523 5516 5508 5500 5494 5492 5491 5492 5497 5502 5511 5519 5525 5531 5566 5576 5578 5586 5594 5604 5617 5628 5642 5649 5654 5660 5667 5677 5683 5693 5702 5710 5717 5724
5678 5661 5643 5622 5600 5583 5570 5555 5543 5533 5523 5515 5506 5500 5493 5484 5476 5473 5474 5473 5479 5486 5491 5499 5523 5537 5537 5549 5561 5571 5586 5599 5611 5624 5632 5638 5641 5650 5662 5671 5680 5689 5697 5705 5714
5667 5650 5633 5611 5595 5576 5561 5547 5536 5525 5517 5511 5504 5494 5485 5475 5466 5457 5456 5457 5457 5464 5470 5483 5498 5506 5516 5525 5543 5551 5574 5582 5592 5603 5614 5618 5625 5631 5646 5656 5665 5675 5683 5690 5700
5656 5638 5618 5598 5581 5567 5555 5542 5530 5521 5514 5507 5498 5486 5474 5467 5458 5448 5441 5441 5441 5446 5452 5466 5475 5486 5494 5510 5527 5538 5553 5566 5576 5583 5592 5601 5609 5619 5632 5642 5651 5661 5671 5679 5687
5649 5631 5611 5589 5573 5561 5550 5538 5528 5521 5511 5504 5491 5483 5473 5461 5452 5444 5434 5431 5429 5433 5437 5448 5457 5467 5476 5492 5502 5525 5539 5549 5559 5566 5565 5585 5595 5602 5615 5631 5639 5648 5656 5666 5674
5643 5626 5606 5587 5575 5562 5550 5537 5526 5517 5509 5499 5489 5479 5468 5457 5449 5440 5431 5425 5423 5424 5427 5435 5442 5449 5464 5477 5487 5504 5522 5536 5539 5539 5548 5569 5578 5587 5600 5615 5627 5636 5645 5653 5662
5635 5617 5598 5580 5570 5561 5548 5535 5526 5515 5505 5495 5485 5475 5465 5458 5449 5438 5431 5423 5418 5418 5420 5426 5434 5438 5447 5459 5472 5486 5501 5513 5523 5525 5541 5552 5550 5566 5584 5598 5613 5624 5631 5640 5649
5629 5612 5594 5582 5572 5560 5545 5537 5525 5514 5504 5493 5484 5476 5467 5456 5446 5437 5428 5421 5416 5415 5417 5418 5426 5430 5436 5448 5463 5471 5486 5501 5517 5522 5535 5531 5539 5554 5567 5578 5594 5608 5618 5626 5635
5626 5608 5593 5581 5569 5556 5550 5538 5524 5512 5501 5491 5482 5473 5464 5455 5447 5438 5428 5423 5416 5413 5413 5416 5420 5423 5428 5437 5450 5460 5476 5490 5500 5510 5509 5514 5528 5535 5551 5564 5576 5590 5603 5613 5622
5623 5605 5591 5578 5567 5558 5548 5534 5522 5511 5501 5491 5481 5472 5463 5454 5444 5436 5429 5422 5416 5411 5411 5413 5416 5420 5424 5429 5440 5451 5460 5473 5484 5495 5499 5500 5507 5524 5537 5550 5563 5576 5589 5598 5607
5619 5605 5589 5577 5567 5556 5543 5531 5521 5510 5499 5489 5479 5469 5461 5452 5445 5436 5429 5421 5415 5410 5409 5410 5413 5416 5420 5424 5431 5439 5449 5459 5470 5478 5486 5492 5499 5509 5521 5536 5549 5560 5572 5583 5593
5618 5603 5588 5575 5565 5553 5542 5531 5521 5511 5501 5491 5480 5470 5460 5451 5444 5436 5429 5422 5415 5410 5408 5408 5411 5413 5416 5420 5423 5430 5440 5450 5458 5468 5474 5486 5491 5499 5512 5523 5534 5545 5556 5567 5578
5617 5602 5588 5575 5562 5552 5541 5531 5521 5511 5501 5490 5481 5471 5460 5452 5444 5436 5429 5422 5415 5411 5408 5407 5408 5411 5414 5416 5419 5426 5431 5439 5447 5457 5464 5475 5485 5492 5502 5512 5522 5533 5541 5551 5562
5615 5600 5586 5574 5562 5552 5542 5531 5520 5511 5499 5488 5477 5468 5460 5452 5444 5436 5428 5423 5417 5411 5408 5407 5407 5409 5411 5413 5415 5419 5424 5430 5438 5445 5453 5465 5474 5484 5493 5501 5509 5519 5529 5539 5549
5613 5599 5584 5572 5561 5550 5540 5531 5521 5510 5500 5489 5478 5467 5458 5449 5442 5435 5428 5422 5417 5412 5409 5407 5407 5408 5409 5410 5412 5415 5420 5424 5431 5436 5443 5452 5463 5472 5483 5492 5500 5508 5518 5526 5535
5614 5599 5584 5572 5561 5552 5543 5532 5521 5510 5499 5487 5475 5465 5454 5447 5439 5433 5428 5422 5417 5413 5409 5407 5406 5406 5408 5409 5410 5414 5417 5420 5424 5430 5436 5443 5451 5464 5471 5478 5485 5497 5506 5514 5521
Wind_Speed
21 23 26 29 31 32 31 31 31 32 33 34 34 35 35 35 35 34 33 39 42 41 41 42 48 47 47 46 45 47 50 45 40 37 32 37 37 35 35 37 39 37 32 31 33
26 28 29 29 29 31 33 34 36 37 38 39 40 40 39 38 38 39 38 36 42 44 42 42 43 49 53 50 51 51 49 41 35 36 36 41 40 37 38 39 39 39 37 36 35
27 29 32 35 37 39 41 42 44 45 46 45 45 45 45 44 41 42 42 41 43 46 45 46 46 49 51 53 56 54 51 39 37 38 41 45 42 41 40 41 40 35 36 35 35
34 37 39 41 44 47 49 50 51 53 54 54 55 54 53 51 52 48 45 45 47 49 47 47 50 53 52 50 51 51 49 44 41 44 47 49 45 45 43 38 39 38 36 39 36
41 44 45 47 50 53 56 58 59 61 61 61 61 61 61 60 57 59 55 52 52 52 51 50 51 51 53 53 52 52 47 44 43 48 50 52 48 48 46 43 43 42 40 42 42
44 47 52 55 58 62 66 68 69 70 71 73 72 70 68 68 69 68 66 62 59 58 58 57 55 53 52 54 56 56 49 43 45 52 55 55 53 52 51 48 46 45 42 43 44
50 55 58 61 64 67 70 72 73 73 75 76 75 75 75 75 76 75 73 71 68 67 64 63 61 60 59 56 55 58 56 49 49 52 58 59 59 55 52 52 49 47 45 46 47
53 59 65 68 69 71 72 73 77 79 80 81 81 79 77 78 79 79 78 76 76 74 73 71 69 66 65 62 59 57 59 57 52 54 58 65 60 55 56 54 53 51 51 48 49
62 69 71 71 73 74 78 81 79 81 78 74 69 66 68 74 76 79 80 81 82 81 80 79 78 74 71 68 65 62 62 58 56 56 59 62 61 57 58 55 54 54 51 52 51
68 74 75 75 76 78 80 80 75 62 57 54 52 54 55 58 61 65 73 79 83 85 86 85 85 83 79 76 71 67 65 64 60 58 62 61 59 56 58 57 55 54 54 56 56
74 76 79 78 80 80 75 64 59 53 48 46 45 45 49 50 54 55 57 64 72 79 85 89 88 90 81 76 72 72 72 67 58 54 60 59 60 56 55 58 56 58 58 57 56
75 81 80 81 82 75 65 57 50 46 42 36 33 34 37 42 45 51 57 59 62 68 73 85 91 86 84 85 83 81 78 73 68 60 58 62 63 60 57 56 54 53 56 58 58
79 81 81 82 75 64 57 52 46 41 36 33 32 32 30 34 38 41 44 54 61 65 65 72 82 86 90 89 88 87 83 79 74 68 65 63 66 66 59 56 57 57 58 58 58
82 82 81 78 66 58 54 49 43 41 36 30 29 34 31 30 33 36 36 40 47 59 66 65 68 81 86 93 90 90 85 82 80 76 72 72 70 69 65 63 59 60 61 62 61
83 82 82 77 66 56 51 46 44 42 37 35 34 39 43 39 30 32 27 29 37 42 56 61 64 72 79 86 85 89 85 82 81 81 77 74 74 73 66 65 65 62 61 63 63
81 81 77 66 58 54 50 46 42 39 34 34 39 39 40 41 35 33 28 18 24 33 39 46 59 66 70 74 81 83 82 76 79 77 77 81 76 76 73 66 65 68 68 65 66
80 80 76 67 51 50 49 47 42 36 38 35 37 40 41 41 37 34 33 17 15 21 31 34 42 58 66 67 67 78 80 65 52 68 73 80 79 79 76 71 67 67 69 70 66
80 79 74 61 50 48 50 48 41 40 38 37 36 38 39 38 35 34 31 25 17 11 19 30 32 43 58 65 62 66 69 77 59 63 73 74 72 81 79 76 71 69 70 70 73
80 79 69 54 47 48 50 45 47 44 42 39 36 34 35 36 37 34 32 30 18 9 12 24 31 36 49 60 51 66 66 60 56 49 64 69 65 83 83 81 77 74 74 73 72
79 77 67 55 48 49 44 46 48 48 47 44 40 38 36 36 35 34 33 30 20 10 11 16 27 33 40 55 60 54 69 67 69 43 60 76 73 68 83 85 82 79 76 77 75
77 74 68 57 49 47 47 48 48 48 48 47 43 40 38 37 37 35 32 29 22 14 11 14 20 27 34 44 58 54 62 77 71 63 50 53 68 79 79 79 82 82 80 78 78
77 71 67 58 49 47 50 49 48 48 48 47 46 43 40 39 36 34 32 30 24 13 9 15 18 22 27 39 58 56 62 70 82 74 57 42 53 54 69 80 81 80 82 80 80
74 70 65 58 51 49 50 50 47 47 47 47 45 44 42 39 37 34 31 30 27 17 8 9 18 19 19 29 43 62 58 71 76 68 64 62 37 62 70 65 78 84 80 83 81
74 69 63 56 53 50 50 50 48 47 48 49 47 44 40 37 35 33 30 28 25 17 8 4 12 17 20 23 32 51 62 67 78 71 57 67 55 37 52 71 77 77 79 82 82
74 67 61 55 52 48 49 51 49 47 49 50 51 47 43 38 34 31 30 26 24 19 10 4 8 14 14 21 27 28 48 62 73 77 72 58 44 42 46 49 64 74 74 77 77
71 68 61 55 52 48 49 50 48 48 50 51 50 49 42 38 33 29 27 26 22 20 13 5 3 8 13 10 22 29 25 38 57 71 73 73 61 39 45 51 60 61 61 65 66
70 67 62 57 51 45 46 49 48 49 52 53 52 49 44 37 31 27 24 23 20 17 16 6 6 10 9 9 12 20 26 26 34 50 65 68 70 59 37 41 46 58 62 62 67
Wind_Direction
330 326 322 319 316 313 310 307 305 303 301 298 293 288 282 276 272 268 259 251 251 249 246 240 239 240 238 238 238 239 238 237 237 236 232 232 231 229 224 221 221 216 211 211 214
325 319 316 314 312 310 306 304 301 299 296 294 291 289 285 280 270 264 259 255 254 250 249 246 242 239 239 238 238 238 240 238 236 234 230 233 230 227 226 224 220 218 212 211 217
325 322 320 318 314 310 307 304 301 298 294 290 285 282 279 277 272 265 259 252 250 250 246 245 245 242 241 240 240 241 241 238 232 231 230 232 229 226 226 222 220 221 218 213 218
328 325 322 318 314 310 306 304 302 298 294 290 287 282 278 272 269 264 260 255 250 249 245 243 242 244 243 243 244 242 242 238 230 230 230 232 227 227 227 224 223 218 213 211 216
329 325 322 317 314 310 307 304 300 297 294 290 286 281 277 272 263 261 257 251 248 247 247 243 241 240 240 242 244 240 236 232 226 228 231 232 229 226 225 222 223 219 213 211 210
327 325 325 323 319 315 311 306 302 298 295 291 286 280 273 269 260 257 256 252 248 245 244 243 243 243 239 236 238 237 236 230 222 223 228 230 230 227 224 222 222 222 217 214 214
330 327 323 319 317 313 308 303 299 296 292 287 282 277 272 265 262 257 254 249 246 243 241 239 239 239 239 236 235 237 235 229 223 222 225 229 228 227 225 223 222 223 223 216 215
327 326 327 324 318 314 310 305 302 298 293 287 281 276 269 264 259 255 252 248 244 241 240 238 236 236 238 237 234 234 235 232 226 223 227 227 227 227 227 224 222 222 222 219 217
331 332 328 323 320 318 314 309 305 301 295 288 283 276 270 265 258 252 248 244 240 238 236 235 235 233 234 235 234 232 236 234 228 227 228 230 228 226 227 224 222 224 222 223 219
334 330 328 326 324 321 317 315 311 307 302 296 290 283 274 270 265 258 249 243 239 235 233 232 231 231 230 231 234 236 235 232 228 224 228 230 229 224 228 227 222 223 223 222 222
332 332 332 330 329 326 325 320 319 315 309 303 297 287 280 273 265 259 251 247 242 238 234 230 231 228 231 234 233 234 234 235 233 227 228 231 234 228 225 225 223 221 221 221 222
337 336 335 334 334 333 331 328 325 322 319 315 309 300 291 278 270 262 253 244 240 238 236 234 231 228 228 228 228 228 232 233 229 227 227 228 231 231 226 227 224 225 225 224 222
340 338 339 339 340 339 335 335 335 329 342 337 334 329 311 300 289 274 261 252 239 236 234 232 232 226 227 226 225 226 227 229 230 226 225 226 228 229 225 225 225 222 224 225 224
341 341 342 345 343 341 343 342 341 350 348 349 346 348 339 318 310 295 271 258 250 238 235 232 226 227 226 227 224 226 224 227 228 228 225 225 227 227 223 221 224 224 222 224 223
344 345 346 347 348 349 350 348 349 352 349 350 352 355 351 350 335 327 294 261 249 244 235 231 227 223 225 225 226 226 224 225 227 229 226 226 227 227 224 221 218 222 224 224 224
347 348 351 353 353 354 354 355 353 350 352 351 355 355 355 352 350 351 331 287 254 241 236 230 226 224 222 223 224 224 226 227 226 227 230 224 227 227 226 220 223 221 220 224 225
349 350 353 356 355 358 358 1 359 352 352 352 352 357 360 354 353 351 353 320 268 236 227 226 222 223 221 219 219 220 220 217 231 227 226 226 227 227 225 222 217 221 223 222 225
351 352 357 360 357 357 2 8 2 1 358 352 355 358 356 360 355 353 352 345 310 255 221 216 213 219 215 217 219 214 215 217 214 228 223 227 227 225 225 223 220 218 221 224 224
353 355 0 358 357 359 6 5 9 8 6 3 357 358 358 358 357 354 352 351 337 267 233 214 211 212 214 210 207 216 210 208 208 227 226 225 223 228 222 224 220 218 219 221 224
355 357 1 358 360 4 2 5 10 11 10 7 4 357 359 357 359 357 353 353 340 301 237 219 209 212 219 210 203 209 211 200 205 212 217 223 224 225 225 222 222 219 218 221 222
356 358 359 1 2 2 1 7 10 10 9 7 5 3 358 358 356 357 356 352 348 312 245 221 213 210 215 214 203 209 207 204 203 211 208 211 221 220 225 225 225 223 221 220 222
357 358 358 360 2 359 5 6 8 9 7 4 3 1 359 358 356 356 356 354 351 347 269 230 219 213 218 216 205 201 207 207 209 216 215 222 219 220 220 225 227 226 225 222 222
358 357 358 358 360 2 4 5 4 6 5 4 360 358 358 357 355 356 355 355 354 355 317 243 224 219 214 220 216 210 204 205 205 213 220 222 225 227 227 221 223 227 226 227 225
359 357 357 357 1 1 2 3 2 2 1 1 0 356 356 354 354 354 356 355 356 351 341 257 215 227 226 220 222 219 213 207 211 211 208 213 221 222 224 228 226 228 228 229 228
360 358 359 358 360 360 1 2 0 0 359 358 356 355 352 352 353 353 355 354 355 357 357 290 227 225 233 227 223 219 224 218 214 220 222 216 216 212 216 218 226 224 225 229 231
359 358 358 358 359 360 360 360 360 359 358 355 354 351 350 348 350 351 354 354 353 1 346 304 230 237 240 240 232 229 220 226 227 223 225 227 224 218 216 215 222 221 225 227 230
0 360 359 359 359 0 359 359 360 360 358 355 353 350 349 347 346 347 351 349 350 357 358 319 225 214 218 229 227 232 235 227 227 232 230 231 230 219 210 217 217 225 226 225 227